Starlink 33601

operational
NORAD ID: 62768 Int'l Des: 2025-015 Owner: SPXS Country: US Constellation: starlink
LEOCIRCULAR

About Starlink 33601

Description loading...

Live Position

Loading 3D Globe...

Upcoming Passes

Altitude History

Altitude vs Time

uPlot chart will show altitude changes over time

Two-Line Element Set

1 62768U 25015L 25305.42169991 .00025806 00000-0 88008-3 0 9996
2 62768 53.1599 198.1832 0001356 101.1810 258.9343 15.30211651 44841
Epoch: Nov 1, 2025 • Age: 20 hours

Current Status

Altitude 476.9 km
Velocity 7.63 km/s
Sub-Earth Point -4.04°S, 52.29°E
Launch Date Jan 21, 2025
Age 0.7 years
Type internet

Technical Details

Classification Payload
Mass 575.00 kg
Dry Mass 530.00 kg
Total Mass 575.00 kg
Length 0.30 m
Diameter 4.10 m
Span 29.00 m
Shape Box + pan
Manufacturer SPXS
Bus Type Starlink V2MO
Phase Status In Orbit
Owner/State SPXS/US

Large Constellations

Loading constellations...